Regional Weather Roundup
Issued by NWS

Home | Current Version | Previous Version | Graphics & Text | Print | Product List | Glossary On
Versions: 1 2 3 4 5 6 7 8 9 10 11 12 13 14 15 16 17 18 19 20 21 22 23 24 25 26 27 28 29 30 31 32 33 34 35 36 37 38 39 40 41 42 43 44 45 46 47 48 49 50
000
ASUS43 KLOT 252303
RWRIL

ILLINOIS REGIONAL WEATHER ROUNDUP
NATIONAL WEATHER SERVICE CHICAGO/ROMEOVILLE IL
600 PM CDT WED APR 25 2018

NOTE: "FAIR" INDICATES FEW OR NO CLOUDS BELOW 12,000 FEET WITH NO
SIGNIFICANT WEATHER AND/OR OBSTRUCTIONS TO VISIBILITY.

* THESE STATIONS ARE NOT UNDER NWS QUALITY CONTROL. THEY ALSO MAY NOT
  REPORT WEATHER SUCH AS PRECIPITATION OR FOG.

ILZ001-002-007-009-015-016-024-260000-
NORTHWEST ILLINOIS

CITY           SKY/WX    TMP DP  RH WIND       PRES   REMARKS
MOLINE         FAIR      65  29  25 VRB5      29.99F
STERLING*      FAIR      63  30  28 N7        30.00F
SAVANNA*       FAIR      63  30  28 N6        30.01S
$$

ILZ003-004-008-010-011-017-018-260000-
NORTH CENTRAL ILLINOIS

CITY           SKY/WX    TMP DP  RH WIND       PRES   REMARKS
ROCKFORD       FAIR      60  27  28 NE9       30.02F
FREEPORT*      FAIR      60  29  30 N5        30.02F
ROCHELLE*      FAIR      61  30  31 N8        30.01S
DE KALB*       FAIR      57  35  44 E12       30.02S
PERU*          FAIR      64  33  31 NE5       30.00F
$$

ILZ005-006-012>014-019>023-260000-
NORTHEAST ILLINOIS

CITY           SKY/WX    TMP DP  RH WIND       PRES   REMARKS
CHICAGO-OHARE  FAIR      47  28  47 NE13      30.05S
CHICAGO-MIDWAY FAIR      47  29  49 NE12      30.05S
AURORA         FAIR      55  34  45 E15       30.02R
LANSING*       FAIR      45  34  65 N8        30.06S
JOLIET*        FAIR      55  34  46 E13       30.02S
WAUKEGAN       FAIR      42  32  67 NE9G17    30.06S
DUPAGE AIRPORT FAIR      51  33  50 NE12      30.02S
KANKAKEE*      FAIR      54  32  43 NE14      30.03S
WHEELING       FAIR      45  31  58 NE12      30.08S
MORRIS*        FAIR      59  32  36 E15       30.00R
ROMEOVILLE*    FAIR      52  33  49 E13       30.03R
NORTHERLY ISL    N/A     42  33  70 NE8         N/A
$$

LMZ740>746-260000-
SOUTHERN LAKE MICHIGAN

STATION/POSITION SKY/WX   TEMP    WIND        PRES    VSBY  WAVE
                          AIR SEA DIR/SP/G                  HT/PER
                          (F)     (DEG/KT/KT) (MB)    (MI)  (FT/S)
HARRISON CRIB              40      10/  9/ 11   N/A
BURNHAM HARBOR             42      30/  8/ 11   N/A
CALUMET HARBOR             40      20/  9/ 12 1017.6S
BURNS HARBOR               41      40/ 10/ 11 1018.3F
MICHIGAN CITY              39      20/ 10/ 12   N/A
ST. JOSEPH                 41 42   20/ 12/ 16 1017.9F         5/ 6
$$

ILZ025>027-034>036-040-047-049-050-058-095>099-260000-
WEST-CENTRAL ILLINOIS

CITY           SKY/WX    TMP DP  RH WIND       PRES   REMARKS
QUINCY         CLOUDY    60  40  47 N7        30.02S
GALESBURG*     FAIR      65  34  31 NW5       30.01F
MACOMB*        CLOUDY    61  36  40 CALM      30.03F
JACKSONVILLE*  PTSUNNY   62  41  46 N8        30.00S
PITTSFIELD*    CLOUDY    62  43  49 N12       30.01S
$$

ILZ028>032-037-038-041>044-048-051>054-059>061-260000-
CENTRAL ILLINOIS

CITY           SKY/WX    TMP DP  RH WIND       PRES   REMARKS
PONTIAC        FAIR      63  29  28 N8        29.99F
BLOOMINGTON    FAIR      62  35  36 N6        30.00F
DECATUR        FAIR      62  39  42 NE13      29.98F
PEORIA         FAIR      63  38  39 CALM      30.00S
LACON*         FAIR      63  30  28 CALM      29.98F
LINCOLN*       FAIR      64  39  40 N6        29.99S
SPRINGFIELD    FAIR      65  42  43 N10       30.00S
TAYLORVILLE    FAIR      65  41  42 N10       29.99S
$$

ILZ033-039-045-046-055>057-062-063-260000-
EAST-CENTRAL ILLINOIS

CITY           SKY/WX    TMP DP  RH WIND       PRES   REMARKS
CHAMPAIGN      FAIR      60  36  40 NE8       29.99F
DANVILLE*      FAIR      57  32  39 N12       29.98S
RANTOUL*       FAIR      59  35  40 NE7       30.00S
MATTOON        FAIR      64  44  48 N7        29.96F
PARIS*         FAIR      61  39  43 N12       29.99S
$$

ILZ079-100>102-260000-
SOUTHWEST ILLINOIS

CITY           SKY/WX    TMP DP  RH WIND       PRES   REMARKS
BELLEVILLE     CLOUDY    64  52  64 N7        29.96R
CAHOKIA*       CLOUDY    64  50  60 N10       29.96F
SPARTA*        CLOUDY    65  56  71 CALM      29.96S
$$

ILZ064>066-069>071-074>076-080>082-084>086-088>090-092>094-260000-
SOUTH-CENTRAL ILLINOIS

CITY           SKY/WX    TMP DP  RH WIND       PRES   REMARKS
CARBONDALE     PTSUNNY   67  54  63 NW5       29.94S
CAIRO*         PTSUNNY   67  54  63 SW10G16   29.95R
EFFINGHAM*     FAIR      64  48  55 N7        29.98F
MARION         PTSUNNY   68  50  52 N5        29.94F
MT. VERNON     CLOUDY    65  52  62 NE5       29.95S
CENTRALIA*     CLOUDY    66  53  63 N7        29.95S
SALEM*         FAIR      66  51  57 N7        29.96S
METROPOLIS*    CLOUDY    69  51  53 NW10      29.95S
$$

ILZ067-068-072-073-078-083-087-091-260000-
SOUTHEAST ILLINOIS

CITY           SKY/WX    TMP DP  RH WIND       PRES   REMARKS
LAWRENCEVILLE  PTSUNNY   66  49  54 MISG      29.96
FLORA*         FAIR      65  51  60 N8        29.97S
FAIRFIELD*     FAIR      66  50  56 N5        29.94S
HARRISBURG*    CLOUDY    68  53  59 CALM      29.94F
ROBINSON*      FAIR      63  48  58 N5        29.96F
CARMI*         FAIR      67  52  59 N6        29.94S
$$

ABBREVIATIONS USED IN REMARKS
   TC - TEMPERATURE IN CELSIUS
  WCI - WIND CHILL INDEX
   HX - HEAT INDEX
  VSB - VISIBILITY
$$





USA.gov is the U.S. government's official web portal to all federal, state and local government web resources and services.